User: anonymous   Login
Location: Caltech
(34.1382°N, 118.1253°W)
Time: 15:31:02
(UTC-07:00)
Language:

FENGYUN 3A - Orbit

View from above orbital plane
View from above orbital plane
View from above satellite
View from above satellite

Ground track
Ground track

The orbit data is extracted from the following two-line orbital elements,

1 32958U 08026A   16269.49154209  .00000031  00000-0  34175-4 0  9999
2 32958  98.4438 304.9648 0009431 336.2068  23.8676 14.19632009431784
Epoch (UTC): 25 September 2016 11:47:49
Eccentricity: 0.0009431
inclination: 98.4438°
perigee height: 820 km
apogee height: 833 km
right ascension of ascending node: 304.9648°
argument of perigee: 336.2068°
revolutions per day: 14.19632009
mean anomaly at epoch: 23.8676°
orbit number at epoch: 43178

The dashed part of the orbit path shows where the satellite is in the earth's shadow,  

DLR